Tracking 29892 objects as of 21-Nov-2024
HD Live streaming from Space Station
objects crossing your sky now

STARLINK-1999

Track STARLINK-1999 now!
10-day predictions
STARLINK-1999 is classified as:


NORAD ID: 47594
Int'l Code: 2021-009AY
Perigee: 328.2 km
Apogee: 332.0 km
Inclination: 53.0 °
Period: 91.0 minutes
Semi major axis: 6701 km
RCS: Unknown
Launch date: February 4, 2021
Source: United States (US)
Launch site: AIR FORCE EASTERN TEST RANGE (AFETR)
Your satellite tracking list
Your tracking list is empty




NASA's NSSDC Master Catalog

Two Line Element Set (TLE):
1 47594U 21009AY  24326.25001157  .00291054  00000-0  13166-2 0  9999
2 47594  53.0461 351.8646 0002849  71.5715 303.8613 15.82635908209969
Source of the keplerian elements: AFSPC